Regional Weather Roundup
Issued by NWS

Home | Current Version | Previous Version | Graphics & Text | Print | Product List | Glossary On
Versions: 1 2 3 4 5 6 7 8 9 10 11 12 13 14 15 16 17 18 19 20 21 22 23 24 25 26 27 28 29 30 31 32 33 34 35 36 37 38 39 40 41 42 43 44 45 46 47 48 49 50
000
ASUS43 KDMX 191707
RWRIA

WEATHER ROUNDUP FOR IOWA
NATIONAL WEATHER SERVICE DES MOINES IA
1100 AM CST FRI DEC 19 2014

NOTE: "FAIR" INDICATES FEW OR NO CLOUDS BELOW 12,000 FEET WITH NO
SIGNIFICANT WEATHER AND/OR OBSTRUCTIONS TO VISIBILITY.

* - THESE STATIONS ARE NOT NWS STATIONS...THUS NOT UNDER NWS
QUALITY CONTROL.  THEY ALSO DO NOT REPORT WEATHER SUCH
AS PRECIPITATION OR FOG.

IAZ001>003-012>014-020>022-031>034-043>046-191800-
   NORTHWEST IOWA

CITY           SKY/WX    TMP DP  RH WIND       PRES   REMARKS
CARROLL *      CLOUDY    32  30  93 S8        30.22F FOG     WCI  25
CHEROKEE *     CLOUDY    32  30  93 S9        30.20S FOG     WCI  24
DENISON *      CLOUDY    32  32 100 S8        30.20F FOG     WCI  25
LE MARS *      CLOUDY    32  28  86 S15G21    30.18F WCI  22
ORANGE CITY *  CLOUDY    32  28  86 S12       30.17S FOG     WCI  23
SHELDON *      CLOUDY    30  30 100 S10       30.16F FOG     WCI  21
SIOUX CITY     CLOUDY    33  28  81 S10       30.20S WCI  25
SPENCER        CLOUDY    32  27  81 S12       30.19S HAZE    WCI  23
STORM LAKE *   CLOUDY    30  30 100 S13       30.20S FOG     WCI  20
$$

IAZ055>058-069>071-079>083-090>094-191800-
   SOUTHWEST IOWA

CITY           SKY/WX    TMP DP  RH WIND       PRES   REMARKS
ATLANTIC *     CLOUDY    32  30  93 S8        30.24F FOG     WCI  25
AUDUBON *        N/A     30  27  86 S6        30.24F HAZE    WCI  24
CLARINDA *     CLOUDY    32  32 100 S7        30.28S FOG     WCI  26
COUNCIL BLFS * CLOUDY    32  32 100 S9        30.22F FOG     WCI  24
CRESTON *      CLOUDY    30  30 100 SE7       30.25F FOG     WCI  23
HARLAN  *      CLOUDY    32  32 100 S9        30.26F FOG     WCI  24
LAMONI         CLOUDY    30  28  92 S6        30.26F FOG     WCI  24
RED OAK *      CLOUDY    32  32 100 S8        30.26S FOG     WCI  25
SHENANDOAH *   CLOUDY    32  30  93 S9        30.27S FOG     WCI  24
$$

IAZ047>049-059>061-072>074-084-191800-
   CENTRAL IOWA

CITY           SKY/WX    TMP DP  RH WIND       PRES   REMARKS
AMES           CLOUDY    29  25  85 SE8       30.27F FOG     WCI  21
ANKENY *       CLOUDY    30  27  86 SE6       30.28F WCI  24
CHARITON *     CLOUDY    30  28  93 SE6       30.27F WCI  24
DES MOINES     CLOUDY    31  26  82 S6        30.28F FOG     WCI  25
GRINNELL*      CLOUDY    28  25  86 SE5       30.29F WCI  23
KNOXVILLE *    CLOUDY    28  27  93 SE6       30.27F WCI  22
MARSHALLTOWN   CLOUDY    28  24  85 SE9       30.27F WCI  19
PELLA *        CLOUDY    30  27  86 SE3       30.30F FOG
PERRY *        CLOUDY    32  30  93 S8        30.25F FOG     WCI  25
$$

IAZ004>006-015-016-023>025-035-036-191800-
   NORTH CENTRAL IOWA

CITY           SKY/WX    TMP DP  RH WIND       PRES   REMARKS
ALGONA *       CLOUDY    30  30 100 S12       30.22F FOG     WCI  21
CLARION *      CLOUDY    28  28 100 S12       30.24S FOG     WCI  18
ESTHERVILLE    CLOUDY    29  28  96 S14       30.19S FOG     WCI  18
FORT DODGE *   CLOUDY    30  27  86 S6        30.24F WCI  24
MASON CITY     CLOUDY    27  23  85 S10       30.25F WCI  17
FOREST CITY *  CLOUDY    30  27  86 S9        30.23S FOG     WCI  22
IOWA FALLS *   CLOUDY    28  27  93 S9        30.26F WCI  20
$$

IAZ007>011-017>019-026>030-037>042-050>054-066-191800-
   NORTHEAST IOWA

CITY           SKY/WX    TMP DP  RH WIND       PRES   REMARKS
CEDAR RAPIDS   CLOUDY    27  21  78 S5        30.29F WCI  22
CHARLES CITY * CLOUDY    27  23  86 SE8       30.27F WCI  18
CLINTON *      MOSUNNY   25  19  80 CALM      30.36F
DECORAH *      CLOUDY    27  21  80 S7        30.26F WCI  19
DUBUQUE          N/A     26  20  77 MISG      30.30F
MONTICELLO *   CLOUDY    27  23  86 SE8       30.31F WCI  18
OELWEIN *      CLOUDY    27  21  80 SE9       30.29S WCI  17
WATERLOO       CLOUDY    28  22  78 SE8       30.28F WCI  20
$$

IAZ064-065-067-068-078-191800-
   EAST CENTRAL IOWA

CITY           SKY/WX    TMP DP  RH WIND       PRES   REMARKS
DAVENPORT      CLOUDY    26  19  74 E6        30.33F WCI  19
IOWA CITY      PTSUNNY   28  21  75 SE5       30.33F WCI  23
MT. PLEASANT * CLOUDY    28  23  80 E6        30.32F WCI  22
MUSCATINE *    CLOUDY    28  19  69 SE5       30.34F WCI  23
QUAD CITIES    MOSUNNY   28  20  71 SE6       30.33F WCI  22
$$

IAZ062-063-075>077-085>089-095>099-191800-
   SOUTHEAST IOWA

CITY           SKY/WX    TMP DP  RH WIND       PRES   REMARKS
BURLINGTON     CLOUDY    29  22  75 VRB3      30.31F
FAIRFIELD *    CLOUDY    28  23  80 SE6       30.30F WCI  22
FORT MADISON * CLOUDY    30  27  86 E7        30.31F WCI  23
KEOKUK *       CLOUDY    30  25  80 E5        30.31F WCI  25
OSKALOOSA *    CLOUDY    28  25  86 E6        30.30F WCI  22
CENTERVILLE *  CLOUDY    30  28  93 SE3       30.30S
OTTUMWA        CLOUDY    29  24  82 E6        30.29F WCI  23
WASHINGTON *   CLOUDY    30  27  86 SE6       30.31F WCI  24
$$

ABBREVIATIONS USED IN REMARKS
   TC - TEMPERATURES IN CELSIUS
  WCI - WIND CHILL INDEX
   HX - HEAT INDEX
  VSB - VISIBILITY
$$



USA.gov is the U.S. government's official web portal to all federal, state and local government web resources and services.